Qamanaarsuup Sermia

KL  EN  DA
ASIAQ
Weather Now GREENLAND SURVEY
Updated [WGT/WGST] Temperature [°C] Wind [m/s] Air pressure [hPa] Relative humidity [%] Precipitation [mm]
Present Wind chill Speed Max
27.09 02:00-8,5-16,97,2 ⇖n/a957n/an/a
27.09 01:00-7,6-15,97,4 ⇖n/a957n/an/a
27.09 00:00-6,4-14,27,0 ⇖n/a957n/an/a
26.09 23:00-5,8-13,06,4 ⇖n/a957n/an/a
26.09 22:00-5,4-12,15,6 ⇖n/a956n/an/a
26.09 21:00-4,9-11,35,4 ⇖n/a956n/an/a
26.09 20:00-4,2-10,04,6 ⇖n/a956n/an/a
26.09 19:00-4,3-9,33,7 ⇖n/a955n/an/a
26.09 18:00-3,5-7,52,8 ⇖n/a955n/an/a
26.09 17:00-3,1-6,92,6 ⇖n/a955n/an/a
26.09 16:00-2,9-6,12,2 ⇖n/a954n/an/a
26.09 15:00-2,5-4,81,6 ⇖n/a954n/an/a
26.09 14:00-2,5-5,42,0 ⇖n/a954n/an/a
26.09 13:00-2,9-5,61,8 ⇖n/a954n/an/a
26.09 12:00-4,0-7,01,9 ⇖n/a954n/an/a
26.09 11:00-4,50,01,2 ⇖n/a954n/an/a
26.09 10:00-5,9-9,42,1 ⇖n/a953n/an/a
26.09 09:00-7,1-10,41,8 ⇖n/a953n/an/a
26.09 08:00-7,6-11,32,0 ⇖n/a952n/an/a
26.09 07:00-7,0-10,82,1 ⇖n/a952n/an/a
26.09 06:00-7,4-11,22,1 ⇖n/a952n/an/a
26.09 05:00-7,4-11,62,4 ⇖n/a952n/an/a
26.09 04:00-6,2-9,92,2 ⇖n/a952n/an/a
26.09 03:00-6,3-11,83,7 ⇖n/a952n/an/a
26.09 02:00-6,8-11,73,0 ⇖n/a953n/an/a
Position: (64.4822,-49.5358)

[Back]